Preview of NWS' New Version of Forecast
This preview is not operational and should not be used for support decisions.

Regional Weather Roundup (RWR)

Issued by National Weather Service (NWS)

                            
000
ASUS43 KDMX 172101
RWRIA 

WEATHER ROUNDUP FOR IOWA
NATIONAL WEATHER SERVICE DES MOINES IA
400 PM CDT TUE SEP 17 2019

NOTE: "FAIR" INDICATES FEW OR NO CLOUDS BELOW 12,000 FEET WITH NO
SIGNIFICANT WEATHER AND/OR OBSTRUCTIONS TO VISIBILITY.

* - THESE STATIONS ARE NOT NWS STATIONS...THUS NOT UNDER NWS
QUALITY CONTROL.  THEY ALSO DO NOT REPORT WEATHER SUCH 
AS PRECIPITATION OR FOG.  

IAZ001>003-012>014-020>022-031>034-043>046-172200-
   NORTHWEST IOWA
  
CITY           SKY/WX    TMP DP  RH WIND       PRES   REMARKS
CARROLL *      SUNNY     90  68  48 S18G26    29.93F HX  93           
CHEROKEE *     SUNNY     88  67  49 S21G29    29.89F HX  90           
DENISON *      SUNNY     90  72  55 S18G26    29.93S HX  96           
LE MARS *      SUNNY     88  70  55 S23G31    29.85F HX  92           
SHELDON *      SUNNY     88  72  58 S17G28    29.86F HX  94           
SIOUX CITY     SUNNY     87  68  52 S21G35    29.85F HX  90           
SPENCER        SUNNY     90  67  46 S22G37    29.90F HX  93           
STORM LAKE *   SUNNY     88  68  51 S18G35    29.89F HX  91           
$$
 
IAZ055>058-069>071-079>083-090>094-172200-
   SOUTHWEST IOWA
  
CITY           SKY/WX    TMP DP  RH WIND       PRES   REMARKS
ATLANTIC *     SUNNY     90  68  48 S15G22    29.93F HX  93           
AUDUBON *        N/A     88  72  58 S13       29.96F HX  94           
CLARINDA *     SUNNY     90  72  55 S13G21    29.97S HX  96           
COUNCIL BLFS * SUNNY     90  66  45 S22       29.90F HX  92           
CRESTON *      SUNNY     90  68  48 S15G23    29.98S HX  93           
HARLAN  *      SUNNY     90  68  48 S14G26    29.93S HX  93           
LAMONI         SUNNY     89  67  47 S13G21    29.99F HX  92           
RED OAK *      SUNNY     90  70  51 S16G23    29.94S HAZE    HX  95   
SHENANDOAH *   SUNNY     91  68  46 S16G25    29.92F HX  95           
$$
 
IAZ047>049-059>061-072>074-084-172200-
   CENTRAL IOWA
  
CITY           SKY/WX    TMP DP  RH WIND       PRES   REMARKS
AMES           MOSUNNY   89  70  53 S15G24    29.97F HX  94           
ANKENY *       SUNNY     88  68  51 S13G20    29.98F HX  91           
BOONE *        MOSUNNY   88  72  58 S13G21    29.96F HX  94           
CHARITON *     MOSUNNY   90  70  51 S13       29.99F HAZE    HX  95   
DES MOINES     MOSUNNY   89  69  51 S14       29.96F HX  93           
GRINNELL*      SUNNY     85  72  65 SE15      30.03F HX  91           
KNOXVILLE *    SUNNY     86  75  70 SE10      29.99F HX  95           
MARSHALLTOWN   SUNNY     84  73  69 SE15      29.99F HX  90           
NEWTON *       SUNNY     88  72  58 SE10G18   29.99F HX  94           
PELLA *        SUNNY     89  67  48 SE10      30.01S HX  92           
PERRY *        FAIR      92  65  40 S15G21    29.95F HX  93           
$$
 
IAZ004>006-015-016-023>025-035-036-172200-
   NORTH CENTRAL IOWA
  
CITY           SKY/WX    TMP DP  RH WIND       PRES   REMARKS
ALGONA *       MOSUNNY   88  72  58 S21G28    29.92F HX  94           
CLARION *      SUNNY     90  70  51 S17G24    29.97F HX  95           
ESTHERVILLE    SUNNY     85  68  56 S23G33    29.90F HX  88           
FORT DODGE *   MOSUNNY   88  70  55 S14G26    29.96F HX  93           
MASON CITY     SUNNY     87  68  52 S18G31    29.98F HX  90           
FOREST CITY *  FAIR      88  70  55 S18       29.96F HX  92           
IOWA FALLS *     N/A     87  66  48 SE14G21   30.01S HX  89           
$$

IAZ007>011-017>019-026>030-037>042-050>054-066-172200-
   NORTHEAST IOWA
  
CITY           SKY/WX    TMP DP  RH WIND       PRES   REMARKS
CEDAR RAPIDS   FAIR      79  67  66 SE14      30.05F HX  81           
CHARLES CITY * FAIR      84  72  65 SE17G25   30.01F HX  89           
CLINTON *      FAIR      78  69  73 S10       30.09F HX  80           
DECORAH *      FAIR      79  70  73 SE10G17   30.03F HX  81           
DUBUQUE        FAIR      75  67  76 S14G21    30.10F                  
MONTICELLO *   FAIR      79  70  73 SE9G17    30.07F HX  81           
OELWEIN *      SUNNY     81  70  69 SE16G23   30.05F HX  84           
WATERLOO       FAIR      84  68  58 SE17      30.00F HX  87           
$$
 
IAZ064-065-067-068-078-172200-
   EAST CENTRAL IOWA
  
CITY           SKY/WX    TMP DP  RH WIND       PRES   REMARKS
DAVENPORT      FAIR      79  68  69 SE12      30.09F HX  81           
IOWA CITY      FAIR      82  67  60 SE10      30.06F HX  84           
MUSCATINE *    FAIR      84  66  54 SE10      30.05F HX  86           
QUAD CITIES    FAIR      81  69  67 E9        30.06F HX  84           
$$
 
IAZ062-063-075>077-085>089-095>099-172200-
   SOUTHEAST IOWA
  
CITY           SKY/WX    TMP DP  RH WIND       PRES   REMARKS
BURLINGTON     SUNNY     83  67  58 VRB7      30.06F HX  85           
FAIRFIELD *    SUNNY     86  75  70 SE10      30.03F HX  95           
FORT MADISON * SUNNY     82  72  69 E6        30.06F HX  87           
KEOKUK *       SUNNY     84  72  65 SE10      30.04F HX  89           
OSKALOOSA *      N/A     86  70  59 SE9       30.02F HX  91           
OTTUMWA        SUNNY     86  73  65 SE12      30.01F HX  93           
WASHINGTON *     N/A    N/A N/A N/A MISG        N/A                   
$$

ABBREVIATIONS USED IN REMARKS
   TC - TEMPERATURES IN CELSIUS
  WCI - WIND CHILL INDEX
   HX - HEAT INDEX
  VSB - VISIBILITY  
$$